Location: Hackney
(51.5500°N, 0.0500°W)
Time: 01:19:56
(UTC+00:00)

Daily predictions for brighter satellites

Satellite Brightness Start Highest point End
(mag) Time Altitude Azimuth Time Altitude Azimuth Time Altitude Azimuth
CENTAUR R/B 4.5 02:05:13 28° NNE 02:05:13 28° NNE 02:09:35 10° NE
ACS3 Solar Sail 4.1 02:00:54 10° NE 02:03:45 17° ENE 02:03:45 17° ENE
ADEOS Rocket 4.4 02:33:16 10° NNE 02:38:45 37° E 02:38:45 37° E
Cosmos 2219 Rocket 4.0 02:55:06 26° E 02:55:06 26° E 02:58:48 10° NE
CZ-2D R/B 4.4 03:13:25 10° N 03:14:23 16° N 03:14:23 16° N
USA 267 3.7 03:14:17 10° ENE 03:20:18 52° SE 03:20:18 52° SE
Cosmos 1980 Rocket 4.3 03:27:56 17° N 03:27:56 17° N 03:29:44 10° NNE
H-2A R/B 3.9 03:26:15 10° NNE 03:28:05 23° NNE 03:28:05 23° NNE
Cosmos 2278 Rocket 3.7 03:29:48 26° N 03:31:35 32° NE 03:36:36 10° ESE
USA 238 DEB 4.0 03:33:04 54° NNE 03:33:04 54° NNE 03:38:44 10° NE
USA 238 4.0 03:33:10 55° NNE 03:33:10 55° NNE 03:38:49 10° NE
Cosmos 2333 Rocket 3.1 03:39:30 42° NNE 03:39:30 42° NNE 03:43:16 10° NNE
ADEOS II 4.0 03:38:24 10° N 03:39:55 19° N 03:39:55 19° N
Lacrosse 5 rocket 4.1 03:46:58 13° ENE 03:46:58 13° ENE 03:47:23 10° ENE
COSMOS 2455 3.1 03:45:06 63° NNE 03:45:06 63° NNE 03:50:07 10° NE
ACS3 Solar Sail 1.9 03:42:43 10° NNE 03:47:53 68° NNE 03:47:53 68° NNE
Resurs 1-4 Rocket 4.3 03:47:13 10° N 03:48:13 15° N 03:48:13 15° N
CENTAUR R/B 4.0 03:52:18 29° NNW 03:54:51 35° N 04:02:38 10° ENE
Cosmos 2360 Rocket 2.6 03:59:08 54° N 03:59:08 54° N 04:03:38 10° NNE
Cosmos 2322 Rocket 2.7 03:59:32 49° N 03:59:32 49° N 04:03:50 10° NNE
USA 234 3.2 03:52:40 10° SE 03:58:53 63° SSW 03:58:53 63° SSW
SL-16 R/B 3.3 04:06:02 32° N 04:06:02 32° N 04:09:42 10° NNE
Cosmos 44 Rocket 3.6 04:05:02 69° E 04:05:02 69° E 04:09:43 10° SE
Cosmos 1943 Rocket 2.9 04:06:17 29° N 04:08:51 51° NE 04:14:12 10° SE
Okean 1-7 3.7 04:13:09 50° NE 04:13:09 50° NE 04:16:37 10° NNE
ARGOS 3.1 04:09:09 10° NNE 04:14:37 82° ESE 04:16:18 46° S
PAYLOAD A 4.5 04:10:01 10° NNE 04:15:25 64° ESE 04:20:29 11° S
Cosmos 1140 Rocket 3.5 04:15:56 52° N 04:17:07 74° ENE 04:22:13 10° SSE
Timation 2 Rocket 4.2 04:14:48 26° NNW 04:18:49 77° NE 04:25:16 10° SE
CZ-2C R/B 2.5 04:14:57 10° NNE 04:19:57 80° ESE 04:21:33 45° S
Cosmos 1809 Rocket 4.4 04:18:16 10° S 04:24:22 82° E 04:30:29 10° NNE
ADEOS Rocket 3.3 04:18:44 10° N 04:24:57 54° WNW 04:25:40 52° W
NOSS 3-1 (C) 3.6 04:27:25 32° S 04:29:25 53° SE 04:34:59 10° NE
Iridium 4 Rocket 4.4 04:26:39 10° N 04:30:47 38° ENE 04:34:42 10° SSE
SJ 16-02 3.8 04:27:51 10° N 04:30:53 18° NE 04:33:55 10° E
Cosmos 2100 Rocket 3.9 04:24:59 10° N 04:31:10 89° WSW 04:37:20 10° S
Cosmos 2219 Rocket 2.2 04:36:49 55° W 04:37:37 61° NW 04:43:16 10° NNE
SL-24 R/B - RUBIN 2 3.8 04:39:23 57° WSW 04:40:26 78° NW 04:45:20 10° NE
TIMED 4.4 04:40:17 56° NNW 04:41:09 84° ENE 04:45:25 10° SSE
Cosmos 1707 Rocket 4.1 04:42:43 44° NNW 04:42:43 44° NNW 04:45:58 10° N
COSMOS 2428 2.9 04:41:52 10° SSW 04:47:30 70° ESE 04:53:11 10° NE
USA 59 Rocket -0.5 04:50:48 62° SE 04:50:48 62° SE 04:53:41 10° NE
SL-08 RB Rocket 3.6 04:47:01 10° N 04:51:35 67° WNW 04:53:29 34° SW
Cosmos 1459 Rocket 3.9 04:46:01 10° NNW 04:52:23 72° W 04:58:41 10° S
Cosmos 1864 Rocket 4.4 04:46:59 10° N 04:53:17 89° WSW 04:59:37 10° S
Cosmos 2322 3.7 04:50:01 14° SSW 04:54:57 87° ESE 05:00:40 10° NNE
FengYun 1-2 T 4.4 04:50:59 10° NNE 04:56:33 76° ESE 05:02:08 10° S
CZ-2D R/B 4.2 04:55:01 10° NNW 04:55:38 12° NNW 04:55:38 12° NNW
Cosmos 407 Rocket 3.4 04:54:46 15° NNW 04:59:05 86° ENE 05:04:11 10° SSE
COSMO-SKYMED 1 3.0 04:55:36 10° SSE 04:59:39 58° ENE 05:03:43 10° N
Meteor 2-21 4.3 04:53:56 10° SSW 05:00:02 76° WNW 05:06:07 10° N
SKYMED 2 3.6 04:56:36 10° SSE 05:00:56 82° ENE 05:05:18 10° NNW
Cosmos 1727 Rocket 4.0 04:56:34 10° SSW 05:02:37 56° WNW 05:08:46 10° N
Cosmos 1725 Rocket 3.9 04:56:28 10° N 05:02:50 85° W 05:09:09 10° S
Cosmos 2228 Rocket 3.3 05:03:28 45° W 05:03:43 45° WNW 05:08:00 10° N
USA 267 3.2 04:57:22 10° ENE 05:03:55 74° NNW 05:07:39 28° W
Cosmos 2150 Rocket 4.5 05:03:46 36° WNW 05:04:25 38° NW 05:09:21 10° NNE
H-2A R/B 3.6 05:06:28 10° N 05:08:34 18° NNW 05:08:34 18° NNW
Cosmos 1802 Rocket 3.9 05:04:21 10° NNW 05:10:43 69° W 05:16:57 10° S
Cosmos 1269 Rocket 4.4 05:09:27 31° WNW 05:11:07 40° WSW 05:16:00 10° S
Cosmos 1980 Rocket 4.3 05:09:40 10° NNW 05:11:15 11° NNW 05:13:03 10° N
NOSS 3-1 (A) 3.9 05:09:03 10° SSW 05:13:37 49° ESE 05:19:07 10° NE
Cosmos 2233 Rocket 4.1 05:07:40 10° N 05:14:03 84° E 05:20:21 10° S
Cosmos 2278 Rocket 2.2 05:11:40 17° NW 05:16:03 63° WSW 05:21:37 10° SSE
Cosmos 1328 3.5 05:13:11 10° SSW 05:16:48 62° WNW 05:20:25 10° N
Cosmos 2251 Rocket 3.8 05:12:32 10° NNW 05:17:54 73° ENE 05:23:16 10° SSE
Cosmos 1703 Rocket 3.4 05:13:51 10° SSW 05:18:12 75° WNW 05:22:36 10° N
CZ-3 R/B 4.4 05:18:59 10° SSW 05:19:41 10° S 05:20:21 10° S
NOSS 2-1 (E) 2.7 05:18:52 28° SW 05:20:33 89° SE 05:23:37 10° NE
Cosmos 1939 Rocket 3.0 05:17:10 10° N 05:20:53 45° WNW 05:23:41 16° SW
Lacrosse 5 rocket 1.8 05:20:39 30° NW 05:21:20 33° N 05:24:27 10° ENE
Cosmos 2173 Rocket 4.2 05:15:55 10° NNW 05:21:35 42° W 05:27:15 10° SSW
ADEOS II 4.1 05:20:00 10° NNW 05:20:43 11° NNW 05:20:43 11° NNW
Meteor 2-16 Rocket 4.4 05:16:30 10° SSW 05:22:37 83° W 05:28:48 10° N
Cosmos 2333 Rocket 3.5 05:21:33 21° NW 05:22:46 22° NW 05:27:12 10° NNE
USA-17 4.1 05:22:08 41° NW 05:23:06 79° SW 05:26:22 10° SE
Cosmos 2237 Rocket 2.8 05:18:02 10° S 05:23:36 59° ESE 05:29:09 10° NE
SL-08 R/B 4.4 05:18:51 10° NNW 05:24:56 73° W 05:31:04 10° S
BlueWalker 3 3.3 05:27:40 20° SW 05:28:00 21° SW 05:30:45 10° S
Cosmos 2292 Rocket 3.8 05:24:20 10° S 05:28:39 85° W 05:34:18 10° N
USA 276 4.3 05:29:39 11° SSW 05:29:39 11° SSW 05:30:03 10° SSW
COSMOS 2455 3.9 05:28:15 22° WNW 05:30:47 29° NNW 05:36:00 10° NNE
ACS3 Solar Sail 2.9 05:26:42 10° N 05:31:01 21° NW 05:32:02 20° WNW
Meteor 1-24 Rocket 3.7 05:27:40 10° SSW 05:33:22 62° WNW 05:38:54 10° N
Cosmos 2369 Rocket 3.5 05:28:25 10° NNW 05:33:41 37° NE 05:38:57 10° ESE
Helios 1A Rocket 2.8 05:30:51 10° S 05:34:05 42° W 05:36:22 17° NW
CZ-4 R/B 3.8 05:30:28 10° NNE 05:35:24 73° WNW 05:40:13 10° SSW
Cosmos 1782 Rocket 3.5 05:32:56 10° NNW 05:37:17 60° W 05:41:35 10° S
SJ-11-01 4.5 05:37:55 10° N 05:42:26 48° WNW 05:46:55 10° SW
Cosmos 2360 Rocket 3.6 05:40:55 17° WNW 05:42:57 21° NW 05:47:11 10° NNE
USA 234 4.5 05:38:12 10° S 05:43:04 22° SW 05:46:14 16° W
Cosmos 2322 Rocket 3.6 05:41:20 17° WNW 05:43:20 20° NNW 05:47:25 10° NNE
Cosmos 2123 Rocket 4.1 05:38:06 10° SSW 05:44:08 51° WNW 05:50:11 10° N
Meteor 2-5 Rocket 3.9 05:38:45 10° SSW 05:44:34 57° WNW 05:50:20 10° N
NOAA 12 4.0 05:39:22 10° NNE 05:44:41 71° WNW 05:49:58 10° SSW
Cosmos 1420 Rocket 4.5 05:40:34 10° S 05:45:46 66° ESE 05:51:03 10° NNE
Gbstr 26 Del rocket 3.8 05:41:19 14° WSW 05:45:47 75° SSE 05:52:05 10° ENE
CENTAUR R/B 3.7 05:39:24 10° NW 05:47:04 59° NE 05:56:07 10° ESE
Okean 1-7 4.3 05:49:34 18° WNW 05:49:53 18° WNW 05:52:49 10° NNW
SL-16 R/B 4.0 05:47:53 12° NW 05:50:05 15° NNW 05:53:11 10° N
TiPS 4.4 05:48:37 10° SW 05:51:01 79° SE 05:53:19 10° NE
Cosmos 1943 Rocket 2.8 05:47:50 12° NW 05:52:22 33° WSW 05:57:14 10° S
Cosmos 2016 Rocket 4.4 05:46:56 10° NNW 05:52:53 43° W 05:58:47 10° SSW
ARGOS 4.4 05:50:16 10° N 05:54:15 21° NW 05:57:45 12° W
Cosmos 1812 2.5 05:53:23 10° N 05:56:19 60° ENE 05:59:12 10° SSE
CZ-2C R/B 3.7 05:53:57 10° N 05:57:28 20° NW 06:00:45 11° W
Cosmos 1300 Rocket 4.1 05:53:44 10° NNW 05:57:41 34° W 06:01:35 10° SSW
Cosmos 374 Rocket 4.4 05:57:53 10° WSW 06:01:42 64° NW 06:06:14 10° NE
Cosmos 2346 Rocket 4.4 05:56:38 10° SSW 06:02:48 83° W 06:08:57 10° N
NOSS 2-1 (C) 3.4 06:00:52 14° W 06:03:16 33° NW 06:06:02 10° NNE
NOSS 2-1 (D) 3.6 06:04:54 13° W 06:07:16 29° NW 06:09:57 10° NNE
SJ 16-02 1.2 06:05:13 10° NNW 06:09:32 72° WSW 06:13:48 10° SSE
Iridium 4 Rocket 4.0 06:06:47 10° NNW 06:10:20 24° W 06:13:44 10° SW
Aureole 3 Rocket 3.3 06:06:30 10° NNW 06:10:36 71° W 06:16:15 10° S
Okean 1 Rocket 4.4 06:06:43 10° N 06:10:52 42° ENE 06:14:59 10° SE
Cosmos 2061 Rocket 4.3 06:07:28 10° NNW 06:13:18 44° W 06:19:05 10° SSW
CBERS-1 4.1 06:09:39 10° NNE 06:14:49 87° ESE 06:19:56 10° SSW
SWARM C 4.4 06:14:23 10° S 06:17:41 70° W 06:21:02 10° N
SWARM A 4.2 06:14:28 10° S 06:17:47 82° W 06:21:07 10° N
Cosmos 1190 Rocket 4.3 06:13:54 10° NW 06:18:57 47° WSW 06:23:56 10° S
IRS-1D 4.1 06:14:32 10° N 06:18:57 32° WNW 06:23:17 10° WSW
Cosmos 676 Rocket 4.0 06:14:46 10° NNW 06:20:02 71° WSW 06:25:12 10° SSE
NOSS 3-1 (C) 3.7 06:15:29 10° W 06:20:19 43° NNW 06:26:17 10° NE
Cosmos 1378 Rocket 3.8 06:16:08 10° S 06:20:23 74° E 06:24:40 10° NNE
Cosmos 1869 3.4 06:18:03 10° NNW 06:21:20 39° W 06:24:36 10° SSW
SL-16 R/B 3.3 06:16:24 10° S 06:21:51 51° ESE 06:27:22 10° NE
Cosmos 2219 Rocket 3.7 06:18:47 10° WNW 06:22:45 19° NNW 06:26:44 10° NNE
In-Cosmos 22 Rocket 4.3 06:17:02 10° SSW 06:22:51 87° WNW 06:28:43 10° NNE
Cosmos 2056 Rocket 3.7 06:21:16 10° SSW 06:26:40 86° ESE 06:32:06 10° NNE
Okean 2 Rocket 3.3 06:24:15 10° N 06:28:38 74° ENE 06:32:59 10° SSE
Cosmos 371 Rocket 3.5 06:25:27 10° NNW 06:30:12 55° WSW 06:34:54 10° S
NOSS 0 Rocket 4.3 06:24:47 10° WSW 06:30:39 45° NW 06:36:34 10° NNE
COSMOS 2428 3.6 06:27:17 10° WSW 06:32:15 30° NW 06:37:14 10° NNE
COSMO-SKYMED 1 4.0 06:32:35 10° SW 06:35:21 17° W 06:38:07 10° NW
Cosmos 1954 Rocket 4.5 06:32:08 10° NW 06:37:00 40° WSW 06:41:47 10° S
